[[{"header":{"parameterUnit":"m.s-1","parameterCategory":1,"la1":30.2991,"la2":30.254,"lo1":-89.0895,"lo2":-89.0444,"dy":0.0017,"dx":0.0017,"nx":28,"ny":28,"refTime":"2023-10-15T21:00:00:Z","depth":0,"parameterNumber":2,"parameterNumberName":"U-component_of_WINDS"},"data":[0,0,0,0,0,0,0,0,0,0,0,0,0,0,0,0,0,0,0,0,0,0,0,0,0,0,0,0,0,0,0,0,0,0,0,0,0,0,0,0,0,0,0,0,0,0,0,0,0,0,0,0,0,0,0,0,0,0,0.5416,0.5417,0,0.5444,0.5444,0.5444,0.5489,0.549,0.549,0.5491,0.5518,0.5518,0.5518,0,0,0,0,0,0,0,0,0,0,0,0,0,0.5401,0.5401,0.5416,0.5417,0.5417,0.5444,0.5444,0.5444,0.5489,0.549,0.5491,0.5492,0.5518,0.5518,0.5518,0,0,0,0,0,0,0,0,0,0,0,0,0,0.5416,0.5401,0.5416,0.5442,0.5445,0.5443,0.5444,0.5444,0.5488,0.549,0.5491,0.5492,0.5518,0.5518,0.5518,0.5493,0,0,0.5517,0.5517,0,0,0,0,0,0,0,0,0.5415,0.5417,0.5438,0.5441,0.5443,0.5464,0.5449,0.546,0.5488,0.5472,0.5491,0.5493,0.5499,0.55,0.5503,0.5494,0.5495,0.5517,0.5517,0.5517,0.5517,0,0,0,0,0,0,0,0.5414,0.5416,0.5427,0.5438,0.5442,0.5452,0.5456,0.5451,0.5478,0.5473,0.5477,0.5479,0.55,0.5503,0.5504,0.5495,0.5517,0.5517,0.5517,0.5517,0.5467,0.5466,0,0,0,0,0,0,0.5409,0.5415,0.5426,0.5428,0.5432,0.5452,0.5455,0.5456,0.5478,0.5483,0.5478,0.5481,0.5502,0.5504,0.5505,0.5477,0.5517,0.5517,0.5517,0.5468,0.5467,0.5465,0,0,0,0,0,0,0.5409,0.541,0.5425,0.5422,0.5425,0.5451,0.5451,0.5456,0.5458,0.5482,0.5487,0.5476,0.5503,0.5505,0.5495,0.5478,0.5517,0.5517,0.547,0.5468,0.5466,0.542,0,0,0,0,0,0,0.5408,0.541,0.5401,0.5422,0.5425,0.5415,0.545,0.5456,0.5458,0.5462,0.5481,0.5485,0.5504,0.5495,0.5495,0.5479,0.5517,0.5471,0.5469,0.5467,0.5423,0.5417,0.5411,0,0,0,0,0,0.5408,0.5386,0.54,0.5401,0.5414,0.5414,0.5416,0.5439,0.5457,0.5448,0.5463,0.5484,0.548,0.5494,0.5494,0.5477,0.5472,0.5469,0.5467,0.5426,0.5418,0.5411,0,0,0,0,0,0,0.5362,0.5389,0.5405,0.539,0.5399,0.5422,0.5411,0.543,0.5435,0.5438,0.5467,0.547,0.5457,0.5466,0.5481,0.5454,0.548,0.5477,0.5448,0.5441,0.5435,0.5433,0.5517,0,0,0,0,0,0.535,0.5348,0.5372,0.5357,0.5361,0.5385,0.5386,0.5403,0.5414,0.5418,0.5432,0.5442,0.5443,0.5443,0.5445,0.5425,0.5429,0.5414,0.5408,0.5403,0.5399,0.5389,0.5382,0.5456,0.5456,0.5456,0,0,0.5326,0.534,0.5337,0.5348,0.5357,0.5354,0.5388,0.5383,0.5381,0.5417,0.5409,0.542,0.5432,0.5417,0.5411,0.5425,0.538,0.5399,0.5395,0.5394,0.5385,0.5379,0.5372,0.5454,0.5454,0.5454,0,0,0.5279,0.529,0.5278,0.5287,0.5302,0.5318,0.5315,0.5335,0.5343,0.5336,0.5362,0.536,0.5361,0.5369,0.5373,0.533,0.5349,0.533,0.5298,0.5288,0.5282,0.5277,0.5261,0.5255,0.5327,0.5326,0.5326,0,0.5247,0.5244,0.527,0.5264,0.5267,0.53,0.5288,0.5295,0.5309,0.531,0.5325,0.5327,0.5338,0.5325,0.5315,0.5317,0.5314,0.5327,0.5281,0.5276,0.5272,0.5257,0.5251,0.5324,0.5324,0.5324,0.5325,0,0.5203,0.52,0.5189,0.5202,0.5204,0.5195,0.5219,0.5219,0.5236,0.525,0.5242,0.5256,0.5261,0.526,0.5276,0.5249,0.5257,0.5276,0.5302,0.5262,0.5248,0.5243,0.532,0.5321,0.5322,0.5323,0,0,0.5127,0.5155,0.5151,0.5157,0.5175,0.5173,0.5166,0.5171,0.517,0.5179,0.5172,0.5173,0.5191,0.5195,0.5213,0.5204,0.5168,0.5224,0.5225,0.5212,0.5138,0.5123,0.5116,0.5182,0.5181,0.518,0.5137,0,0.5084,0.5073,0.5096,0.5079,0.5077,0.5108,0.5101,0.5111,0.5125,0.5125,0.514,0.5139,0.5163,0.5166,0.5159,0.5174,0.5153,0.5177,0.5175,0.5175,0.517,0.5109,0.5093,0.5052,0.5132,0.5131,0.513,0,0.5032,0.5038,0.5021,0.504,0.504,0.5034,0.5041,0.504,0.5052,0.5063,0.5068,0.5089,0.5082,0.5108,0.5099,0.5115,0.5115,0.5123,0.5122,0.5122,0.5149,0.5106,0.5039,0.5033,0.5122,0.5123,0.5124,0,0.4978,0.4982,0.4972,0.4977,0.4999,0.4994,0.5003,0.5016,0.5018,0.5024,0.5026,0.5031,0.5033,0.5037,0.5058,0.5075,0.5046,0.5074,0.5054,0.5053,0.5046,0.5046,0.4977,0.5048,0.5048,0.5048,0.5048,0,0.4927,0.4915,0.4948,0.4942,0.4929,0.4956,0.4943,0.4955,0.4967,0.4963,0.4991,0.4987,0.5016,0.5015,0.5032,0.5021,0.5022,0.503,0.5035,0.5027,0.5026,0.5027,0.503,0.5046,0.5047,0.5047,0.5047,0,0.4864,0.4886,0.4877,0.4899,0.4905,0.4894,0.4913,0.4908,0.4923,0.4918,0.4919,0.4943,0.4943,0.4965,0.497,0.4981,0.4963,0.4973,0.4959,0.4962,0.4941,0.4942,0.4869,0.4861,0.4938,0.4937,0.4936,0,0.4829,0.4821,0.4842,0.4842,0.485,0.4849,0.4851,0.4878,0.4879,0.4892,0.4885,0.4888,0.4891,0.489,0.4907,0.4911,0.4921,0.4895,0.4922,0.4914,0.492,0.4919,0.4918,0.4889,0.4888,0.4888,0.4887,0,0.4765,0.4777,0.4779,0.4785,0.4787,0.4793,0.4801,0.4799,0.4828,0.4828,0.4829,0.4831,0.4836,0.4838,0.4845,0.4854,0.4875,0.4879,0.4874,0.4866,0.4858,0.4861,0.4943,0.488,0.4881,0.4881,0.4882,0.4882,0.4715,0.4709,0.4723,0.4725,0.4733,0.474,0.4736,0.4751,0.4753,0.4759,0.4775,0.4773,0.4785,0.4797,0.4804,0.4802,0.4815,0.4809,0.4807,0.4805,0.48,0.4859,0.4804,0.4804,0.4804,0.4804,0.4805,0,0.4652,0.4663,0.4664,0.4674,0.4675,0.4696,0.4705,0.4705,0.4703,0.4713,0.4716,0.4716,0.4718,0.4736,0.4741,0.4736,0.4745,0.4736,0.4736,0.4738,0.4789,0.4792,0.4728,0.4728,0.4728,0.4728,0.4728,0.4728,0.4619,0.4609,0.4623,0.4617,0.4628,0.4627,0.463,0.4637,0.4645,0.4644,0.4646,0.4658,0.4671,0.4677,0.4679,0.4685,0.4684,0.4671,0.4679,0.4727,0.4734,0.4741,0.4744,0.4671,0.4671,0.4628,0.4628,0.4628]},{"header":{"parameterUnit":"m.s-1","parameterCategory":1,"la1":30.2991,"la2":30.254,"lo1":-89.0895,"lo2":-89.0444,"dy":0.0017,"dx":0.0017,"nx":28,"ny":28,"refTime":"2023-10-15T21:00:00:Z","depth":0,"parameterNumber":3,"parameterNumberName":"V-component_of_WINDS"},"data":[0,0,0,0,0,0,0,0,0,0,0,0,0,0,0,0,0,0,0,0,0,0,0,0,0,0,0,0,0,0,0,0,0,0,0,0,0,0,0,0,0,0,0,0,0,0,0,0,0,0,0,0,0,0,0,0,0,0,-0.3454,-0.3455,0,-0.3512,-0.3513,-0.3513,-0.3536,-0.3535,-0.3535,-0.3535,-0.3595,-0.3597,-0.3598,0,0,0,0,0,0,0,0,0,0,0,0,0,-0.3365,-0.3367,-0.3454,-0.3455,-0.3456,-0.3512,-0.3513,-0.3513,-0.3536,-0.3535,-0.3535,-0.3535,-0.3594,-0.3596,-0.3599,0,0,0,0,0,0,0,0,0,0,0,0,0,-0.3412,-0.3367,-0.3454,-0.3474,-0.3476,-0.3512,-0.3513,-0.3514,-0.3536,-0.3535,-0.3535,-0.3535,-0.3594,-0.3596,-0.3599,-0.362,0,0,-0.3607,-0.3608,0,0,0,0,0,0,0,0,-0.3409,-0.3415,-0.347,-0.3472,-0.3475,-0.3516,-0.3503,-0.3549,-0.3536,-0.3513,-0.3535,-0.3535,-0.3569,-0.3574,-0.3585,-0.3623,-0.3625,-0.3607,-0.3609,-0.361,-0.361,0,0,0,0,0,0,0,-0.3406,-0.3413,-0.3477,-0.3471,-0.3474,-0.348,-0.3486,-0.3512,-0.3542,-0.3515,-0.3517,-0.3523,-0.357,-0.3582,-0.3587,-0.3626,-0.3607,-0.3609,-0.3611,-0.3612,-0.3686,-0.3686,0,0,0,0,0,0,-0.3399,-0.341,-0.3475,-0.3479,-0.3441,-0.3482,-0.3489,-0.3503,-0.3541,-0.3547,-0.3523,-0.3524,-0.3578,-0.3583,-0.3589,-0.3617,-0.361,-0.3612,-0.3614,-0.3685,-0.3686,-0.3686,0,0,0,0,0,0,-0.3397,-0.3405,-0.3473,-0.3445,-0.3454,-0.3484,-0.35,-0.3505,-0.3517,-0.3548,-0.3553,-0.353,-0.3578,-0.3585,-0.3612,-0.362,-0.3613,-0.3616,-0.3685,-0.3685,-0.3686,-0.3673,0,0,0,0,0,0,-0.3394,-0.3404,-0.3412,-0.3445,-0.3455,-0.3495,-0.35,-0.3506,-0.3521,-0.3522,-0.3556,-0.3561,-0.3578,-0.3608,-0.3615,-0.3623,-0.3618,-0.3684,-0.3685,-0.3686,-0.3673,-0.3673,-0.3673,0,0,0,0,0,-0.3391,-0.3405,-0.3412,-0.342,-0.3466,-0.3495,-0.3501,-0.3521,-0.3521,-0.353,-0.355,-0.356,-0.3617,-0.3611,-0.3618,-0.3627,-0.3684,-0.3685,-0.3686,-0.3673,-0.3673,-0.3673,0,0,0,0,0,0,-0.3372,-0.341,-0.3418,-0.3443,-0.3466,-0.3499,-0.351,-0.352,-0.3543,-0.3544,-0.3568,-0.3575,-0.3601,-0.3617,-0.3609,-0.3651,-0.3651,-0.3654,-0.3639,-0.364,-0.364,-0.3636,-0.362,0,0,0,0,0,-0.3371,-0.3392,-0.3424,-0.3443,-0.3454,-0.348,-0.3494,-0.3507,-0.3532,-0.3541,-0.3564,-0.3587,-0.3611,-0.3626,-0.365,-0.3675,-0.3684,-0.3686,-0.3686,-0.3686,-0.3688,-0.3704,-0.3706,-0.3689,-0.3689,-0.3689,0,0,-0.3369,-0.3392,-0.3403,-0.344,-0.3459,-0.3481,-0.3488,-0.351,-0.3526,-0.3545,-0.3572,-0.3589,-0.3618,-0.3645,-0.3658,-0.3659,-0.3694,-0.3687,-0.3686,-0.3689,-0.3705,-0.3707,-0.3708,-0.369,-0.3689,-0.3689,0,0,-0.3376,-0.3395,-0.3414,-0.3433,-0.3462,-0.348,-0.3484,-0.3516,-0.3528,-0.3556,-0.3571,-0.3591,-0.3631,-0.3651,-0.3666,-0.3682,-0.3693,-0.3689,-0.369,-0.3706,-0.3708,-0.3709,-0.3716,-0.3718,-0.3691,-0.3691,-0.3691,0,-0.3369,-0.3402,-0.3422,-0.3444,-0.346,-0.3478,-0.3498,-0.3516,-0.3551,-0.3562,-0.3563,-0.3614,-0.3635,-0.3667,-0.3671,-0.3683,-0.369,-0.3686,-0.3706,-0.3707,-0.3709,-0.3716,-0.3718,-0.3691,-0.3691,-0.3691,-0.3691,0,-0.3393,-0.3415,-0.3427,-0.3461,-0.3479,-0.35,-0.3524,-0.3539,-0.3551,-0.3569,-0.3598,-0.3623,-0.3653,-0.3661,-0.3673,-0.3696,-0.3696,-0.3701,-0.3702,-0.3709,-0.3717,-0.3719,-0.369,-0.369,-0.369,-0.369,0,0,-0.3389,-0.3435,-0.3439,-0.3456,-0.349,-0.3508,-0.353,-0.3559,-0.3572,-0.3596,-0.3616,-0.365,-0.3655,-0.3673,-0.3687,-0.3701,-0.3714,-0.3704,-0.3705,-0.3706,-0.3743,-0.374,-0.3743,-0.3721,-0.3721,-0.3722,-0.3741,0,-0.3401,-0.3441,-0.3461,-0.3493,-0.3515,-0.3533,-0.3553,-0.3576,-0.3593,-0.3615,-0.3634,-0.3659,-0.3663,-0.3674,-0.3688,-0.3709,-0.3722,-0.3708,-0.3741,-0.3742,-0.3734,-0.3746,-0.3743,-0.376,-0.3744,-0.3744,-0.3745,0,-0.3421,-0.3445,-0.3479,-0.3513,-0.3523,-0.354,-0.3569,-0.3589,-0.3616,-0.3628,-0.3648,-0.3663,-0.3688,-0.3687,-0.3722,-0.3713,-0.3727,-0.374,-0.3741,-0.3746,-0.3744,-0.3752,-0.3765,-0.3768,-0.3749,-0.3749,-0.3748,0,-0.3416,-0.3457,-0.3484,-0.3497,-0.3536,-0.3548,-0.3565,-0.3592,-0.3609,-0.3634,-0.3646,-0.3674,-0.3689,-0.3711,-0.3733,-0.373,-0.3767,-0.3767,-0.3778,-0.3778,-0.3786,-0.3785,-0.3803,-0.3793,-0.3793,-0.3793,-0.3793,0,-0.3428,-0.3449,-0.3482,-0.3499,-0.3523,-0.3546,-0.3569,-0.3587,-0.3612,-0.3633,-0.365,-0.3669,-0.3696,-0.3719,-0.3736,-0.3764,-0.377,-0.3782,-0.3786,-0.3781,-0.3779,-0.3791,-0.3791,-0.3794,-0.3794,-0.3793,-0.3793,0,-0.3427,-0.345,-0.348,-0.3515,-0.3524,-0.3541,-0.3571,-0.3588,-0.3607,-0.3633,-0.364,-0.367,-0.3698,-0.3722,-0.3758,-0.377,-0.3799,-0.3804,-0.379,-0.3793,-0.3803,-0.3802,-0.383,-0.3835,-0.382,-0.3821,-0.3821,0,-0.3433,-0.345,-0.3487,-0.3502,-0.3519,-0.3543,-0.356,-0.3584,-0.3602,-0.3635,-0.3649,-0.3678,-0.3703,-0.3747,-0.3772,-0.3801,-0.3807,-0.3815,-0.3812,-0.3806,-0.3809,-0.3808,-0.3811,-0.3815,-0.3815,-0.3815,-0.3815,0,-0.3443,-0.3454,-0.3478,-0.3508,-0.3528,-0.3552,-0.3576,-0.3588,-0.3617,-0.3636,-0.3665,-0.3684,-0.3722,-0.3752,-0.3784,-0.3802,-0.3814,-0.3816,-0.3821,-0.3816,-0.3808,-0.3814,-0.3792,-0.3816,-0.3815,-0.3815,-0.3815,-0.3815,-0.3447,-0.3463,-0.3492,-0.3519,-0.354,-0.3563,-0.3581,-0.3603,-0.3627,-0.3661,-0.3673,-0.3704,-0.3732,-0.3776,-0.3795,-0.3819,-0.3821,-0.3827,-0.3828,-0.383,-0.383,-0.3803,-0.3825,-0.3825,-0.3825,-0.3825,-0.3825,0,-0.3458,-0.3478,-0.3503,-0.3537,-0.3559,-0.3569,-0.3597,-0.3614,-0.3641,-0.3667,-0.3691,-0.3726,-0.3755,-0.3783,-0.3813,-0.3828,-0.3834,-0.3835,-0.3835,-0.3839,-0.3826,-0.382,-0.383,-0.383,-0.383,-0.383,-0.383,-0.383,-0.3467,-0.3495,-0.351,-0.355,-0.357,-0.36,-0.3615,-0.3637,-0.3658,-0.3696,-0.372,-0.3738,-0.3766,-0.3799,-0.3826,-0.3834,-0.3845,-0.3845,-0.3854,-0.3841,-0.384,-0.3839,-0.3834,-0.3847,-0.3847,-0.3866,-0.3866,-0.3866]}]]